| time (UTC) | temp F | wind direction | speed knots | gust knots | rain 1hr in | rain 24hr in | rain mn in | humidity % | barometer mb |
| 20260902134529 | 71 | 270 | 0.0 | 7.8 | 0.00 | 0.00 | 0.00 | 61 | 1018.7 |
| 20260902133030 | 71 | 157 | 0.0 | 2.6 | 0.00 | 0.00 | 0.00 | 60 | 1018.8 |
| 20260902131529 | 71 | 280 | 0.9 | 4.3 | 0.00 | 0.00 | 0.00 | 60 | 1018.9 |
| 20260902130026 | 70 | 160 | 0.9 | 6.1 | 0.00 | 0.00 | 0.00 | 60 | 1019.0 |
| 20260902124526 | 70 | 291 | 0.9 | 5.2 | 0.00 | 0.00 | 0.00 | 60 | 1019.0 |
| 20260902123025 | 71 | 182 | 0.0 | 3.5 | 0.00 | 0.00 | 0.00 | 61 | 1019.0 |
| 20260902121524 | 73 | 277 | 0.9 | 7.0 | 0.00 | 0.00 | 0.00 | 57 | 1019.2 |
| 20260902120023 | 72 | 263 | 0.9 | 7.0 | 0.00 | 0.00 | 0.00 | 59 | 1019.2 |
| 20260902114526 | 71 | 360 | 0.9 | 6.1 | 0.00 | 0.00 | 0.00 | 62 | 1019.4 |
| 20260902113020 | 71 | 285 | 1.7 | 6.1 | 0.00 | 0.00 | 0.00 | 59 | 1019.4 |
| 20260902111520 | 71 | 284 | 0.9 | 8.7 | 0.00 | 0.00 | 0.00 | 59 | 1019.6 |
| 20260902110018 | 70 | 293 | 1.7 | 5.2 | 0.00 | 0.00 | 0.00 | 62 | 1019.7 |
| 20260902104528 | 69 | 294 | 0.9 | 5.2 | 0.00 | 0.00 | 0.00 | 62 | 1019.7 |
| 20260902103016 | 70 | 238 | 2.6 | 9.6 | 0.00 | 0.00 | 0.00 | 58 | 1019.7 |
| 20260902101514 | 72 | 195 | 3.5 | 7.8 | 0.00 | 0.00 | 0.00 | 60 | 1019.8 |
| 20260902100013 | 71 | 248 | 0.0 | 5.2 | 0.00 | 0.00 | 0.00 | 61 | 1019.9 |
| 20260902094517 | 68 | 337 | 0.0 | 5.2 | 0.00 | 0.00 | 0.00 | 66 | 1020.0 |
| 20260902093009 | 70 | 107 | 0.9 | 6.1 | 0.00 | 0.00 | 0.00 | 65 | 1020.0 |
| 20260902091506 | 68 | 279 | 0.0 | 2.6 | 0.00 | 0.00 | 0.00 | 69 | 1020.0 |
| 20260902090005 | 68 | 277 | 1.7 | 6.1 | 0.00 | 0.00 | 0.00 | 69 | 1020.0 |
| 20260902084504 | 68 | 256 | 0.9 | 4.3 | 0.00 | 0.00 | 0.00 | 70 | 1020.1 |
| 20260902083107 | 66 | 250 | 0.0 | 5.2 | 0.00 | 0.00 | 0.00 | 73 | 1020.1 |
| 20260902081530 | 66 | 156 | 0.0 | 6.1 | 0.00 | 0.00 | 0.00 | 74 | 1020.3 |
| 20260902080032 | 67 | 306 | 0.9 | 4.3 | 0.00 | 0.00 | 0.00 | 73 | 1020.2 |
| 20260902074525 | 66 | 140 | 0.9 | 3.5 | 0.00 | 0.00 | 0.00 | 76 | 1020.0 |
| 20260902073021 | 64 | 218 | 1.7 | 5.2 | 0.00 | 0.00 | 0.00 | 80 | 1019.9 |
| 20260902071525 | 63 | 207 | 0.0 | 3.5 | 0.00 | 0.00 | 0.00 | 83 | 1019.9 |
| 20260902070019 | 62 | 187 | 0.0 | 5.2 | 0.00 | 0.00 | 0.00 | 86 | 1019.9 |
| 20260902064510 | 60 | 147 | 0.0 | 1.7 | 0.00 | 0.00 | 0.00 | 91 | 1019.9 |
| 20260902063013 | 58 | 173 | 0.0 | 2.6 | 0.00 | 0.00 | 0.00 | 94 | 1019.9 |
| 20260902061505 | 57 | 178 | 0.0 | 1.7 | 0.00 | 0.00 | 0.00 | 94 | 1020.0 |
| 20260902060014 | 57 | 156 | 0.0 | 2.6 | 0.00 | 0.00 | 0.00 | 95 | 1019.9 |
| 20260902054604 | 56 | 195 | 0.0 | 0.0 | 0.00 | 0.00 | 0.00 | 95 | 1020.0 |
| 20260902053057 | 56 | 155 | 0.0 | 1.7 | 0.00 | 0.00 | 0.00 | 96 | 1020.0 |
| 20260902051556 | 54 | 182 | 0.0 | 1.7 | 0.00 | 0.00 | 0.00 | 96 | 1020.0 |
| 20260902050058 | 52 | 196 | 0.0 | 0.9 | 0.00 | 0.00 | 0.00 | 95 | 1020.0 |
| 20260902044545 | 52 | 204 | 0.0 | 0.0 | 0.00 | 0.00 | 0.00 | 95 | 1020.0 |
| 20260902043042 | 52 | 204 | 0.0 | 0.0 | 0.00 | 0.00 | 0.00 | 95 | 1020.0 |
| 20260902041550 | 51 | 202 | 0.0 | 0.0 | 0.00 | 0.00 | 0.00 | 94 | 1019.8 |
| 20260902040038 | 51 | 196 | 0.0 | 0.0 | 0.00 | 0.00 | 0.00 | 94 | 1019.6 |
| 20260902034536 | 52 | 196 | 0.0 | 0.0 | 0.00 | 0.01 | 0.00 | 94 | 1019.4 |
| 20260902033041 | 52 | 196 | 0.0 | 0.0 | 0.00 | 0.01 | 0.00 | 94 | 1019.1 |
| 20260902031535 | 52 | 196 | 0.0 | 0.0 | 0.00 | 0.01 | 0.00 | 93 | 1019.1 |
| 20260902030031 | 53 | 196 | 0.0 | 0.0 | 0.00 | 0.01 | 0.00 | 93 | 1019.2 |
| 20260902024529 | 53 | 196 | 0.0 | 0.0 | 0.00 | 0.02 | 0.00 | 93 | 1019.2 |
| 20260902023026 | 54 | 196 | 0.0 | 0.0 | 0.00 | 0.02 | 0.00 | 93 | 1019.3 |
| 20260902021532 | 54 | 196 | 0.0 | 0.0 | 0.00 | 0.02 | 0.00 | 93 | 1019.4 |
| 20260902020023 | 55 | 196 | 0.0 | 0.0 | 0.00 | 0.02 | 0.00 | 93 | 1019.4 |
| 20260902014533 | 55 | 196 | 0.0 | 0.0 | 0.00 | 0.02 | 0.00 | 93 | 1019.4 |
| 20260902013020 | 55 | 196 | 0.0 | 0.0 | 0.00 | 0.02 | 0.00 | 93 | 1019.4 |
| 20260902011532 | 56 | 201 | 0.0 | 0.0 | 0.00 | 0.02 | 0.00 | 92 | 1019.4 |
| 20260902010022 | 56 | 201 | 0.0 | 0.0 | 0.00 | 0.02 | 0.00 | 92 | 1019.3 |
| 20260902004618 | 57 | 201 | 0.0 | 0.0 | 0.00 | 0.03 | 0.00 | 92 | 1019.2 |
| 20260902003012 | 57 | 201 | 0.0 | 0.9 | 0.00 | 0.03 | 0.00 | 92 | 1019.2 |
| 20260902001513 | 57 | 201 | 0.0 | 0.0 | 0.00 | 0.03 | 0.00 | 91 | 1019.1 |
| 20260902000009 | 58 | 202 | 0.0 | 0.9 | 0.00 | 0.03 | 0.00 | 90 | 1019.0 |
| 20260901234518 | 58 | 201 | 0.0 | 0.0 | 0.00 | 0.03 | 0.00 | 90 | 1019.0 |
| 20260901233004 | 59 | 201 | 0.0 | 0.0 | 0.00 | 0.03 | 0.00 | 89 | 1018.9 |
| 20260901231505 | 59 | 254 | 0.0 | 0.9 | 0.00 | 0.03 | 0.00 | 89 | 1018.9 |
| 20260901230002 | 59 | 258 | 0.0 | 0.0 | 0.00 | 0.03 | 0.00 | 88 | 1018.9 |
| 20260901224559 | 60 | 254 | 0.0 | 1.7 | 0.00 | 0.03 | 0.00 | 88 | 1018.9 |
| 20260901223112 | 60 | 202 | 0.0 | 0.9 | 0.00 | 0.03 | 0.00 | 87 | 1018.9 |
| 20260901221554 | 61 | 267 | 0.0 | 1.7 | 0.00 | 0.03 | 0.00 | 86 | 1018.8 |
| 20260901220059 | 61 | 296 | 0.0 | 3.5 | 0.00 | 0.03 | 0.00 | 86 | 1018.7 |
| 20260901214550 | 61 | 239 | 0.0 | 1.7 | 0.00 | 0.03 | 0.03 | 84 | 1018.6 |
| 20260901213050 | 62 | 297 | 0.0 | 0.9 | 0.00 | 0.03 | 0.03 | 83 | 1018.6 |
| 20260901211554 | 62 | 297 | 0.0 | 3.5 | 0.00 | 0.03 | 0.03 | 83 | 1018.5 |
| 20260901210057 | 63 | 177 | 0.0 | 1.7 | 0.00 | 0.03 | 0.03 | 81 | 1018.5 |
| 20260901204549 | 63 | 271 | 0.0 | 2.6 | 0.00 | 0.03 | 0.03 | 80 | 1018.4 |
| 20260901203050 | 63 | 243 | 0.0 | 5.2 | 0.00 | 0.03 | 0.03 | 79 | 1018.5 |
| 20260901201543 | 64 | 292 | 0.0 | 4.3 | 0.00 | 0.03 | 0.03 | 77 | 1018.4 |
| 20260901200054 | 65 | 263 | 0.0 | 2.6 | 0.00 | 0.03 | 0.03 | 76 | 1018.4 |
| 20260901194559 | 65 | 333 | 0.0 | 4.3 | 0.00 | 0.06 | 0.03 | 74 | 1018.2 |
| 20260901193040 | 66 | 236 | 0.0 | 5.2 | 0.00 | 0.06 | 0.03 | 72 | 1018.2 |
| 20260901191538 | 66 | 279 | 0.9 | 5.2 | 0.00 | 0.06 | 0.03 | 71 | 1018.1 |
| 20260901190042 | 66 | 282 | 0.0 | 5.2 | 0.00 | 0.06 | 0.03 | 71 | 1018.1 |
| 20260901184536 | 67 | 295 | 0.9 | 6.1 | 0.00 | 0.07 | 0.03 | 70 | 1017.9 |
| 20260901183041 | 67 | 276 | 3.5 | 7.8 | 0.00 | 0.07 | 0.03 | 66 | 1017.7 |
| 20260901181536 | 68 | 323 | 1.7 | 3.5 | 0.00 | 0.07 | 0.03 | 66 | 1017.5 |
| 20260901180030 | 68 | 259 | 1.7 | 6.1 | 0.00 | 0.07 | 0.03 | 67 | 1017.3 |
| 20260901174530 | 68 | 269 | 1.7 | 6.1 | 0.00 | 0.08 | 0.03 | 67 | 1017.1 |
| 20260901173029 | 68 | 310 | 0.9 | 3.5 | 0.00 | 0.08 | 0.03 | 66 | 1016.9 |
| 20260901171529 | 69 | 115 | 0.0 | 2.6 | 0.00 | 0.08 | 0.03 | 65 | 1016.9 |
| 20260901170028 | 69 | 234 | 0.0 | 1.7 | 0.00 | 0.08 | 0.03 | 64 | 1016.8 |
| 20260901164527 | 70 | 198 | 0.9 | 4.3 | 0.00 | 0.08 | 0.03 | 64 | 1016.7 |
| 20260901163026 | 70 | 266 | 0.0 | 7.0 | 0.00 | 0.08 | 0.03 | 62 | 1016.8 |
| 20260901160058 | 71 | 250 | 2.6 | 7.0 | 0.00 | 0.08 | 0.03 | 58 | 1016.7 |
| 20260901154553 | 71 | 266 | 1.7 | 7.8 | 0.00 | 0.08 | 0.03 | 57 | 1016.7 |
| 20260901153053 | 72 | 187 | 1.7 | 6.1 | 0.00 | 0.08 | 0.03 | 59 | 1016.6 |
| 20260901151554 | 72 | 201 | 1.7 | 5.2 | 0.00 | 0.08 | 0.03 | 59 | 1016.6 |
| 20260901150051 | 72 | 255 | 1.7 | 10.4 | 0.00 | 0.08 | 0.03 | 60 | 1016.6 |
| 20260901144550 | 72 | 10 | 0.9 | 5.2 | 0.00 | 0.08 | 0.03 | 62 | 1016.7 |
| 20260901143050 | 72 | 292 | 0.9 | 6.1 | 0.00 | 0.08 | 0.03 | 61 | 1016.6 |
| 20260901141557 | 73 | 275 | 1.7 | 13.0 | 0.00 | 0.08 | 0.03 | 58 | 1016.6 |
| 20260901140051 | 74 | 215 | 1.7 | 9.6 | 0.00 | 0.08 | 0.03 | 57 | 1016.6 |